Regional Weather Roundup
Issued by NWS

Home | Current Version | Previous Version | Text Only | Print | Product List | Glossary On
Versions: 1 2 3 4 5 6 7 8 9 10 11 12 13 14 15 16 17 18 19 20 21 22 23 24 25 26 27 28 29 30 31 32 33 34 35 36 37 38 39 40 41 42 43 44 45 46 47 48 49 50
095
ASUS42 KKEY 201810
RWRKEY

FLORIDA REGIONAL WEATHER ROUNDUP FOR THE FLORIDA KEYS
NATIONAL WEATHER SERVICE KEY WEST FLORIDA
100 PM EST FRI JAN 20 2017

...SOUTH FLORIDA AND THE KEYS...

CITY           SKY/WX    TMP DP  RH WIND       PRES   REMARKS
FORT MYERS     SUNNY     81  61  50 SW9       29.97F
SW REGIONAL AP SUNNY     80  61  52 SW12      29.97F
NAPLES         MOSUNNY   80  66  62 SW12      29.98F
MIAMI          MOSUNNY   81  63  54 S6        29.98F
WEST KENDALL   PTSUNNY   81  61  50 VRB6      29.98F
HOMESTEAD      PTSUNNY   79  65  64 SE3       29.98F
MARATHON       SUNNY     85  67  54 S7        29.99F
BOCA CHICA NAS SUNNY     79  66  64 S8        29.99F
KEY WEST INTL  SUNNY     79  66  64 S8        30.00F

...INTERNATIONAL WEATHER...

CITY           SKY/WX    TMP DP  RH WIND       PRES   REMARKS
NASSAU BAHAMAS MOSUNNY   79  66  65 SE7       30.03S
CANCUN MEXICO  MOSUNNY   84  68  58 S15       29.93F
COZUMEL MEXICO PTSUNNY   82  68  61 S9        29.92F

ADJACENT COASTAL WATERS...

STATION/POSITION TIME  SKY/WX   TEMP    WIND        PRES    WAVE
                                AIR SEA DIR/SP/G            HT/PER
                 (UTC)          (F)     (DEG/KT/KT) (MB)    (FT/S)
PULASKI SHOAL LI 1800            76     190/ 10/ 11 1015.1F
SAND KEY         1750            76     190/  7/  9 1016.2F
LONG KEY         1700            76 75   CALM  /  2 1016.9F
MOLASSES REEF    1800            77 77  230/  7/  9 1015.8F
FOWEY ROCKS      1800            77 76  150/  3/  4 1016.1F

$$




USA.gov is the U.S. government's official web portal to all federal, state and local government web resources and services.